Time,TemperatureF,DewpointF,PressureIn,WindDirection,WindDirectionDegrees,WindSpeedMPH,WindSpeedGustMPH,Humidity,HourlyPrecipIn,Conditions,Clouds,dailyrainin,SoftwareType,DateUTC
2013-06-23 00:02:00,62.0,51.0,29.85,SSW,211,0.0,2.0,66,0.00,,,0.00,,2013-06-23 07:02:00,
2013-06-23 00:12:00,62.0,51.0,29.85,SE,140,1.0,2.0,67,0.00,,,0.00,,2013-06-23 07:12:00,
2013-06-23 00:22:00,62.0,51.0,29.85,SE,140,0.0,2.0,68,0.00,,,0.00,,2013-06-23 07:22:00,
2013-06-23 00:34:00,61.0,51.0,29.85,SE,140,0.0,2.0,70,0.00,,,0.00,,2013-06-23 07:34:00,
2013-06-23 00:42:00,61.0,52.0,29.85,NNE,15,1.0,2.0,71,0.00,,,0.00,,2013-06-23 07:42:00,
2013-06-23 00:53:00,61.0,52.0,29.85,NNW,329,0.0,3.0,72,0.00,,,0.00,,2013-06-23 07:53:00,
2013-06-23 01:02:00,60.0,51.0,29.85,NNW,329,1.0,2.0,73,0.00,,,0.00,,2013-06-23 08:02:00,
2013-06-23 01:11:00,60.0,52.0,29.84,NNW,329,1.0,2.0,74,0.00,,,0.00,,2013-06-23 08:11:00,
2013-06-23 01:33:00,60.0,52.0,29.84,West,267,0.0,1.0,75,0.00,,,0.00,,2013-06-23 08:33:00,
2013-06-23 01:42:00,60.0,52.0,29.84,West,267,0.0,1.0,76,0.00,,,0.00,,2013-06-23 08:42:00,
2013-06-23 01:53:00,60.0,52.0,29.84,WSW,248,0.0,4.0,76,0.00,,,0.00,,2013-06-23 08:53:00,
2013-06-23 02:02:00,60.0,53.0,29.84,NNW,335,1.0,2.0,77,0.00,,,0.00,,2013-06-23 09:02:00,
2013-06-23 02:12:00,59.0,51.0,29.84,NNW,335,0.0,1.0,76,0.00,,,0.00,,2013-06-23 09:12:00,
2013-06-23 02:22:00,59.0,52.0,29.84,NNW,335,0.0,1.0,77,0.00,,,0.00,,2013-06-23 09:22:00,
2013-06-23 02:34:00,59.0,52.0,29.84,NNW,335,0.0,1.0,77,0.00,,,0.00,,2013-06-23 09:34:00,
2013-06-23 02:43:00,59.0,52.0,29.83,NNW,335,0.0,2.0,77,0.00,,,0.00,,2013-06-23 09:43:00,
2013-06-23 02:53:00,59.0,52.0,29.83,NNW,335,0.0,1.0,77,0.00,,,0.00,,2013-06-23 09:53:00,
2013-06-23 03:02:00,59.0,52.0,29.83,NNW,335,0.0,2.0,78,0.00,,,0.00,,2013-06-23 10:02:00,
2013-06-23 03:11:00,59.0,52.0,29.83,NNW,335,1.0,2.0,78,0.00,,,0.00,,2013-06-23 10:11:00,
2013-06-23 03:34:00,59.0,52.0,29.83,North,355,0.0,1.0,78,0.00,,,0.00,,2013-06-23 10:34:00,
2013-06-23 03:43:00,58.0,51.0,29.82,North,355,0.0,1.0,78,0.00,,,0.00,,2013-06-23 10:43:00,
2013-06-23 03:52:00,58.0,51.0,29.82,North,355,0.0,2.0,78,0.00,,,0.00,,2013-06-23 10:52:00,
2013-06-23 04:01:00,58.0,51.0,29.83,North,5,0.0,2.0,78,0.00,,,0.00,,2013-06-23 11:01:00,
2013-06-23 04:11:00,58.0,52.0,29.83,North,5,1.0,2.0,79,0.00,,,0.00,,2013-06-23 11:11:00,
2013-06-23 04:22:00,58.0,52.0,29.83,North,9,0.0,2.0,79,0.00,,,0.00,,2013-06-23 11:22:00,
2013-06-23 04:33:00,58.0,52.0,29.82,North,9,0.0,1.0,80,0.00,,,0.00,,2013-06-23 11:33:00,
2013-06-23 04:43:00,57.0,51.0,29.82,North,360,0.0,2.0,80,0.00,,,0.00,,2013-06-23 11:43:00,
2013-06-23 04:53:00,57.0,51.0,29.83,North,9,0.0,3.0,81,0.00,,,0.00,,2013-06-23 11:53:00,
2013-06-23 05:01:00,57.0,52.0,29.83,South,171,1.0,4.0,82,0.00,,,0.00,,2013-06-23 12:01:00,
2013-06-23 05:11:00,58.0,52.0,29.83,WSW,244,0.0,3.0,81,0.00,,,0.00,,2013-06-23 12:11:00,
2013-06-23 05:33:00,58.0,53.0,29.83,West,265,0.0,0.0,82,0.00,,,0.00,,2013-06-23 12:33:00,
2013-06-23 05:53:00,57.0,52.0,29.83,NNE,13,0.0,2.0,83,0.00,,,0.00,,2013-06-23 12:53:00,
2013-06-23 06:01:00,57.0,52.0,29.83,NNE,13,0.0,2.0,83,0.00,,,0.00,,2013-06-23 13:01:00,
2013-06-23 06:33:00,58.0,53.0,29.84,NNE,13,0.0,1.0,84,0.00,,,0.00,,2013-06-23 13:33:00,
2013-06-23 06:43:00,58.0,53.0,29.84,NNE,13,0.0,1.0,84,0.00,,,0.00,,2013-06-23 13:43:00,
2013-06-23 06:53:00,58.0,54.0,29.83,NNE,13,0.0,1.0,85,0.00,,,0.00,,2013-06-23 13:53:00,
2013-06-23 07:11:00,58.0,54.0,29.83,SSW,200,0.0,2.0,85,0.00,,,0.00,,2013-06-23 14:11:00,
2013-06-23 07:52:00,59.0,54.0,29.83,South,188,1.0,3.0,84,0.00,,,0.00,,2013-06-23 14:52:00,
2013-06-23 08:05:00,59.0,54.0,29.84,SSW,213,0.0,4.0,83,0.00,,,0.00,,2013-06-23 15:05:00,
2013-06-23 08:11:00,60.0,55.0,29.84,SSW,196,0.0,4.0,83,0.00,,,0.00,,2013-06-23 15:11:00,
2013-06-23 08:34:00,60.0,54.0,29.84,West,269,2.0,4.0,82,0.00,,,0.00,,2013-06-23 15:34:00,
2013-06-23 08:43:00,59.0,54.0,29.83,South,190,0.0,3.0,83,0.00,,,0.00,,2013-06-23 15:43:00,
2013-06-23 08:52:00,59.0,54.0,29.84,South,190,0.0,3.0,83,0.00,,,0.00,,2013-06-23 15:52:00,
2013-06-23 09:05:00,59.0,54.0,29.84,SSW,206,0.0,3.0,84,0.00,,,0.00,,2013-06-23 16:05:00,
2013-06-23 09:11:00,59.0,54.0,29.84,South,182,1.0,2.0,83,0.00,,,0.00,,2013-06-23 16:11:00,
2013-06-23 09:42:00,60.0,55.0,29.85,SW,219,1.0,3.0,84,0.00,,,0.00,,2013-06-23 16:42:00,
2013-06-23 09:52:00,60.0,55.0,29.85,SE,144,2.0,5.0,83,0.00,,,0.00,,2013-06-23 16:52:00,
2013-06-23 10:03:00,60.0,55.0,29.85,SSE,154,2.0,5.0,83,0.00,,,0.00,,2013-06-23 17:03:00,
2013-06-23 10:11:00,60.0,55.0,29.85,SSW,195,3.0,5.0,83,0.00,,,0.00,,2013-06-23 17:11:00,
2013-06-23 10:22:00,61.0,55.0,29.86,SSE,166,2.0,4.0,81,0.00,,,0.00,,2013-06-23 17:22:00,
2013-06-23 10:33:00,61.0,56.0,29.85,SW,216,0.0,4.0,83,0.00,,,0.00,,2013-06-23 17:33:00,
2013-06-23 10:43:00,63.0,57.0,29.86,SSW,193,1.0,4.0,80,0.00,,,0.00,,2013-06-23 17:43:00,
2013-06-23 10:52:00,63.0,56.0,29.85,ESE,123,1.0,8.0,78,0.00,,,0.00,,2013-06-23 17:52:00,
2013-06-23 11:01:00,63.0,56.0,29.85,South,189,3.0,6.0,78,0.00,,,0.00,,2013-06-23 18:01:00,
2013-06-23 11:11:00,63.0,56.0,29.86,SSE,155,2.0,6.0,79,0.00,,,0.00,,2013-06-23 18:11:00,
2013-06-23 11:22:00,63.0,56.0,29.85,SSE,165,2.0,6.0,79,0.00,,,0.00,,2013-06-23 18:22:00,
2013-06-23 11:33:00,63.0,56.0,29.86,South,169,2.0,4.0,78,0.00,,,0.00,,2013-06-23 18:33:00,
2013-06-23 11:42:00,65.0,58.0,29.86,South,182,3.0,7.0,78,0.00,,,0.00,,2013-06-23 18:42:00,
2013-06-23 11:53:00,66.0,58.0,29.86,ESE,121,3.0,9.0,75,0.00,,,0.00,,2013-06-23 18:53:00,
2013-06-23 12:01:00,67.0,58.0,29.86,SSE,160,2.0,5.0,73,0.00,,,0.00,,2013-06-23 19:01:00,
2013-06-23 12:11:00,67.0,58.0,29.86,SSE,164,2.0,6.0,73,0.00,,,0.00,,2013-06-23 19:11:00,
2013-06-23 12:53:00,66.0,59.0,29.86,SE,138,5.0,9.0,77,0.00,,,0.00,,2013-06-23 19:53:00,
2013-06-23 13:01:00,65.0,58.0,29.86,SSW,199,5.0,9.0,78,0.00,,,0.00,,2013-06-23 20:01:00,
2013-06-23 13:11:00,66.0,59.0,29.86,ESE,111,4.0,8.0,78,0.00,,,0.00,,2013-06-23 20:11:00,
2013-06-23 13:33:00,66.0,59.0,29.85,South,171,4.0,9.0,77,0.00,,,0.00,,2013-06-23 20:33:00,
2013-06-23 13:42:00,66.0,59.0,29.85,SE,128,4.0,9.0,78,0.00,,,0.00,,2013-06-23 20:42:00,
2013-06-23 13:52:00,66.0,59.0,29.85,SSE,158,3.0,13.0,79,0.00,,,0.00,,2013-06-23 20:52:00,
2013-06-23 14:01:00,66.0,59.0,29.85,South,178,5.0,10.0,78,0.00,,,0.00,,2013-06-23 21:01:00,
2013-06-23 14:11:00,66.0,59.0,29.85,SSW,209,3.0,10.0,78,0.00,,,0.00,,2013-06-23 21:11:00,
2013-06-23 14:22:00,66.0,59.0,29.85,SSE,154,3.0,7.0,79,0.00,,,0.00,,2013-06-23 21:22:00,
2013-06-23 14:33:00,65.0,59.0,29.85,East,98,3.0,8.0,81,0.00,,,0.00,,2013-06-23 21:33:00,
2013-06-23 14:43:00,64.0,58.0,29.85,SSE,161,3.0,9.0,82,0.00,,,0.00,,2013-06-23 21:43:00,
2013-06-23 14:52:00,64.0,58.0,29.85,South,176,2.0,5.0,82,0.00,,,0.00,,2013-06-23 21:52:00,
2013-06-23 15:01:00,63.0,58.0,29.85,West,267,2.0,7.0,83,0.00,,,0.00,,2013-06-23 22:01:00,
2013-06-23 15:11:00,63.0,58.0,29.85,South,174,4.0,10.0,84,0.00,,,0.00,,2013-06-23 22:11:00,
2013-06-23 15:22:00,63.0,58.0,29.85,South,183,2.0,10.0,85,0.00,,,0.00,,2013-06-23 22:22:00,
2013-06-23 15:32:00,63.0,59.0,29.85,ESE,107,2.0,7.0,86,0.00,,,0.00,,2013-06-23 22:32:00,
2013-06-23 15:43:00,62.0,58.0,29.84,South,175,4.0,12.0,87,0.00,,,0.00,,2013-06-23 22:43:00,
2013-06-23 15:53:00,63.0,59.0,29.84,South,189,3.0,9.0,86,0.00,,,0.00,,2013-06-23 22:53:00,
2013-06-23 16:01:00,63.0,58.0,29.83,SW,215,5.0,10.0,85,0.00,,,0.00,,2013-06-23 23:01:00,
2013-06-23 16:11:00,64.0,60.0,29.83,SSE,164,3.0,8.0,86,0.00,,,0.00,,2013-06-23 23:11:00,
2013-06-23 16:22:00,64.0,59.0,29.83,ESE,111,4.0,9.0,84,0.00,,,0.00,,2013-06-23 23:22:00,
2013-06-23 16:33:00,65.0,59.0,29.84,SSE,159,5.0,13.0,82,0.00,,,0.00,,2013-06-23 23:33:00,
2013-06-23 16:44:00,65.0,60.0,29.84,ESE,122,3.0,7.0,83,0.00,,,0.00,,2013-06-23 23:44:00,
2013-06-23 16:52:00,65.0,59.0,29.84,South,180,3.0,6.0,82,0.00,,,0.00,,2013-06-23 23:52:00,
2013-06-23 17:01:00,64.0,59.0,29.84,SSW,192,2.0,8.0,83,0.00,,,0.00,,2013-06-24 00:01:00,
2013-06-23 17:11:00,64.0,58.0,29.83,South,172,4.0,9.0,82,0.00,,,0.00,,2013-06-24 00:11:00,
2013-06-23 17:33:00,64.0,58.0,29.83,ESE,110,4.0,10.0,82,0.00,,,0.00,,2013-06-24 00:33:00,
2013-06-23 17:42:00,64.0,59.0,29.83,SE,144,4.0,8.0,83,0.00,,,0.00,,2013-06-24 00:42:00,
2013-06-23 17:52:00,63.0,58.0,29.83,SSE,162,5.0,10.0,84,0.00,,,0.00,,2013-06-24 00:52:00,
2013-06-23 18:01:00,63.0,58.0,29.82,SSW,192,4.0,10.0,84,0.00,,,0.00,,2013-06-24 01:01:00,
2013-06-23 18:11:00,63.0,58.0,29.82,SE,138,5.0,10.0,84,0.00,,,0.00,,2013-06-24 01:11:00,
2013-06-23 18:32:00,63.0,58.0,29.82,South,171,3.0,8.0,85,0.00,,,0.00,,2013-06-24 01:32:00,
2013-06-23 18:42:00,63.0,58.0,29.83,South,187,2.0,8.0,84,0.00,,,0.00,,2013-06-24 01:42:00,
2013-06-23 18:52:00,63.0,58.0,29.82,SSE,165,3.0,7.0,84,0.00,,,0.00,,2013-06-24 01:52:00,
2013-06-23 19:01:00,63.0,58.0,29.82,SSW,213,3.0,7.0,84,0.00,,,0.00,,2013-06-24 02:01:00,
2013-06-23 19:11:00,63.0,58.0,29.81,SSW,198,5.0,9.0,84,0.00,,,0.00,,2013-06-24 02:11:00,
2013-06-23 19:33:00,62.0,57.0,29.82,SSE,149,3.0,10.0,85,0.00,,,0.00,,2013-06-24 02:33:00,
2013-06-23 19:42:00,62.0,58.0,29.82,SSE,156,3.0,8.0,86,0.00,,,0.00,,2013-06-24 02:42:00,
2013-06-23 19:53:00,61.0,57.0,29.82,SE,128,5.0,10.0,87,0.00,,,0.00,,2013-06-24 02:53:00,
2013-06-23 20:01:00,61.0,57.0,29.81,South,182,4.0,7.0,88,0.00,,,0.00,,2013-06-24 03:01:00,
2013-06-23 20:11:00,60.0,56.0,29.81,SE,130,4.0,8.0,88,0.00,,,0.00,,2013-06-24 03:11:00,
2013-06-23 20:21:00,60.0,57.0,29.82,SSE,149,4.0,7.0,89,0.00,,,0.00,,2013-06-24 03:21:00,
2013-06-23 20:42:00,59.0,56.0,29.82,SSE,149,4.0,7.0,91,0.00,,,0.00,,2013-06-24 03:42:00,
2013-06-23 20:53:00,59.0,56.0,29.82,SSE,153,5.0,9.0,91,0.00,,,0.00,,2013-06-24 03:53:00,
2013-06-23 21:01:00,59.0,57.0,29.82,South,184,4.0,7.0,92,0.00,,,0.00,,2013-06-24 04:01:00,
2013-06-23 21:11:00,58.0,56.0,29.82,ESE,121,4.0,7.0,92,0.00,,,0.00,,2013-06-24 04:11:00,
2013-06-23 21:22:00,58.0,56.0,29.82,SSW,200,3.0,7.0,93,0.00,,,0.00,,2013-06-24 04:22:00,
2013-06-23 21:33:00,58.0,56.0,29.82,South,182,4.0,9.0,93,0.00,,,0.00,,2013-06-24 04:33:00,
2013-06-23 21:43:00,57.0,55.0,29.82,South,171,1.0,7.0,94,0.00,,,0.00,,2013-06-24 04:43:00,
2013-06-23 22:02:00,57.0,55.0,29.82,South,180,3.0,5.0,94,0.00,,,0.00,,2013-06-24 05:02:00,
2013-06-23 22:12:00,56.0,55.0,29.82,SSE,151,1.0,7.0,95,0.00,,,0.00,,2013-06-24 05:12:00,
2013-06-23 22:22:00,56.0,55.0,29.83,ESE,112,3.0,5.0,95,0.00,,,0.00,,2013-06-24 05:22:00,
2013-06-23 22:33:00,56.0,55.0,29.83,SSW,195,2.0,7.0,95,0.00,,,0.00,,2013-06-24 05:33:00,
2013-06-23 22:42:00,56.0,55.0,29.83,SE,146,3.0,5.0,95,0.00,,,0.00,,2013-06-24 05:42:00,
2013-06-23 22:52:00,56.0,55.0,29.83,SSE,152,1.0,5.0,95,0.00,,,0.00,,2013-06-24 05:52:00,
2013-06-23 23:02:00,56.0,55.0,29.83,SSE,159,3.0,4.0,96,0.00,,,0.00,,2013-06-24 06:02:00,
2013-06-23 23:12:00,55.0,54.0,29.82,SE,138,3.0,5.0,96,0.00,,,0.00,,2013-06-24 06:12:00,
2013-06-23 23:42:00,55.0,54.0,29.82,SE,140,5.0,12.0,96,0.00,,,0.00,,2013-06-24 06:42:00,
2013-06-23 23:52:00,55.0,54.0,29.82,South,179,2.0,5.0,96,0.00,,,0.00,,2013-06-24 06:52:00,